Time,TemperatureF,DewpointF,PressureIn,WindDirection,WindDirectionDegrees,WindSpeedMPH,WindSpeedGustMPH,Humidity,HourlyPrecipIn,Conditions,Clouds,dailyrainin,SoftwareType,DateUTC
2013-02-10 00:00:00,13.6,2.6,30.06,West,277,4.0,5.0,61,0.00,,,0.00,Wunderground v.1.12,2013-02-10 05:00:00,
2013-02-10 00:03:00,13.6,2.3,30.07,WNW,300,4.0,7.0,60,0.00,,,0.00,Wunderground v.1.12,2013-02-10 05:03:00,
2013-02-10 00:04:00,13.6,2.6,30.07,WNW,300,3.0,3.0,61,0.00,,,0.00,Wunderground v.1.12,2013-02-10 05:04:00,
2013-02-10 00:08:00,13.8,2.5,30.07,WNW,295,3.0,5.0,60,0.00,,,0.00,Wunderground v.1.12,2013-02-10 05:08:00,
2013-02-10 00:13:00,13.5,2.2,30.07,West,277,3.0,3.0,60,0.00,,,0.00,Wunderground v.1.12,2013-02-10 05:13:00,
2013-02-10 00:18:00,13.6,2.3,30.07,WNW,290,3.0,4.0,60,0.00,,,0.00,Wunderground v.1.12,2013-02-10 05:18:00,
2013-02-10 00:23:00,13.8,2.5,30.07,WNW,298,4.0,5.0,60,0.00,,,0.00,Wunderground v.1.12,2013-02-10 05:23:00,
2013-02-10 00:29:00,13.6,2.3,30.07,WNW,298,3.0,3.0,60,0.00,,,0.00,Wunderground v.1.12,2013-02-10 05:29:00,
2013-02-10 00:34:00,13.3,2.0,30.07,WNW,298,3.0,3.0,60,0.00,,,0.00,Wunderground v.1.12,2013-02-10 05:34:00,
2013-02-10 00:39:00,13.5,2.2,30.07,West,274,3.0,3.0,60,0.00,,,0.00,Wunderground v.1.12,2013-02-10 05:39:00,
2013-02-10 00:45:00,13.6,1.9,30.07,WNW,290,4.0,4.0,59,0.00,,,0.00,Wunderground v.1.12,2013-02-10 05:45:00,
2013-02-10 00:50:00,13.3,1.6,30.08,WNW,290,3.0,4.0,59,0.00,,,0.00,Wunderground v.1.12,2013-02-10 05:50:00,
2013-02-10 00:55:00,13.3,2.0,30.08,WNW,287,3.0,3.0,60,0.00,,,0.00,Wunderground v.1.12,2013-02-10 05:55:00,
2013-02-10 01:00:00,13.1,1.8,30.08,WNW,287,3.0,3.0,60,0.00,,,0.00,Wunderground v.1.12,2013-02-10 06:00:00,
2013-02-10 01:05:00,13.5,1.8,30.08,West,279,4.0,7.0,59,0.00,,,0.00,Wunderground v.1.12,2013-02-10 06:05:00,
2013-02-10 01:10:00,13.5,1.4,30.08,WNW,285,4.0,5.0,58,0.00,,,0.00,Wunderground v.1.12,2013-02-10 06:10:00,
2013-02-10 01:15:00,13.5,1.4,30.08,NW,305,3.0,10.0,58,0.00,,,0.00,Wunderground v.1.12,2013-02-10 06:15:00,
2013-02-10 01:21:00,13.5,1.4,30.09,WNW,296,3.0,3.0,58,0.00,,,0.00,Wunderground v.1.12,2013-02-10 06:21:00,
2013-02-10 01:26:00,13.3,1.3,30.09,WSW,246,3.0,4.0,58,0.00,,,0.00,Wunderground v.1.12,2013-02-10 06:26:00,
2013-02-10 01:33:00,12.9,1.2,30.09,NW,313,3.0,3.0,59,0.00,,,0.00,Wunderground v.1.12,2013-02-10 06:33:00,
2013-02-10 01:38:00,12.9,1.2,30.09,WNW,297,2.0,3.0,59,0.00,,,0.00,Wunderground v.1.12,2013-02-10 06:38:00,
2013-02-10 01:44:00,13.1,1.1,30.09,WNW,288,3.0,6.0,58,0.00,,,0.00,Wunderground v.1.12,2013-02-10 06:44:00,
2013-02-10 01:50:00,13.6,1.2,30.10,West,280,5.0,5.0,57,0.00,,,0.00,Wunderground v.1.12,2013-02-10 06:50:00,
2013-02-10 01:55:00,13.8,1.4,30.10,WNW,282,5.0,9.0,57,0.00,,,0.00,Wunderground v.1.12,2013-02-10 06:55:00,
2013-02-10 02:01:00,13.8,1.4,30.10,WNW,286,4.0,4.0,57,0.00,,,0.00,Wunderground v.1.12,2013-02-10 07:01:00,
2013-02-10 02:06:00,13.3,0.9,30.11,WNW,284,4.0,6.0,57,0.00,,,0.00,Wunderground v.1.12,2013-02-10 07:06:00,
2013-02-10 02:13:00,13.6,0.8,30.11,West,281,4.0,10.0,56,0.00,,,0.00,Wunderground v.1.12,2013-02-10 07:13:00,
2013-02-10 02:18:00,13.8,1.0,30.11,WNW,294,5.0,5.0,56,0.00,,,0.00,Wunderground v.1.12,2013-02-10 07:18:00,
2013-02-10 02:23:00,14.0,0.8,30.11,WNW,298,5.0,6.0,55,0.00,,,0.00,Wunderground v.1.12,2013-02-10 07:23:00,
2013-02-10 02:29:00,13.8,1.0,30.11,WNW,298,5.0,5.0,56,0.00,,,0.00,Wunderground v.1.12,2013-02-10 07:29:00,
2013-02-10 02:35:00,13.8,1.0,30.11,West,279,5.0,5.0,56,0.00,,,0.00,Wunderground v.1.12,2013-02-10 07:35:00,
2013-02-10 02:40:00,13.8,0.6,30.11,West,270,4.0,4.0,55,0.00,,,0.00,Wunderground v.1.12,2013-02-10 07:40:00,
2013-02-10 02:45:00,13.6,0.4,30.11,WNW,296,4.0,4.0,55,0.00,,,0.00,Wunderground v.1.12,2013-02-10 07:45:00,
2013-02-10 02:51:00,13.8,0.6,30.12,NW,309,4.0,9.0,55,0.00,,,0.00,Wunderground v.1.12,2013-02-10 07:51:00,
2013-02-10 02:58:00,13.3,0.5,30.12,NW,308,3.0,4.0,56,0.00,,,0.00,Wunderground v.1.12,2013-02-10 07:58:00,
2013-02-10 03:03:00,13.1,0.3,30.12,NW,304,3.0,3.0,56,0.00,,,0.00,Wunderground v.1.12,2013-02-10 08:03:00,
2013-02-10 03:09:00,13.1,0.3,30.12,WNW,292,3.0,3.0,56,0.00,,,0.00,Wunderground v.1.12,2013-02-10 08:09:00,
2013-02-10 03:14:00,12.9,-0.3,30.12,West,273,3.0,3.0,55,0.00,,,0.00,Wunderground v.1.12,2013-02-10 08:14:00,
2013-02-10 03:20:00,12.6,-0.2,30.13,WNW,282,3.0,4.0,56,0.00,,,0.00,Wunderground v.1.12,2013-02-10 08:20:00,
2013-02-10 03:26:00,12.6,-0.2,30.13,WNW,290,3.0,6.0,56,0.00,,,0.00,Wunderground v.1.12,2013-02-10 08:26:00,
2013-02-10 03:34:00,12.6,-0.2,30.13,WNW,288,3.0,4.0,56,0.00,,,0.00,Wunderground v.1.12,2013-02-10 08:34:00,
2013-02-10 03:39:00,12.6,-0.2,30.13,WNW,288,2.0,2.0,56,0.00,,,0.00,Wunderground v.1.12,2013-02-10 08:39:00,
2013-02-10 03:44:00,12.6,-0.2,30.13,WNW,288,1.0,1.0,56,0.00,,,0.00,Wunderground v.1.12,2013-02-10 08:44:00,
2013-02-10 03:49:00,12.6,-0.2,30.13,WNW,288,1.0,1.0,56,0.00,,,0.00,Wunderground v.1.12,2013-02-10 08:49:00,
2013-02-10 03:55:00,12.3,-0.4,30.13,WNW,288,0.0,2.0,56,0.00,,,0.00,Wunderground v.1.12,2013-02-10 08:55:00,
2013-02-10 04:00:00,11.9,-0.8,30.13,WNW,288,1.0,2.0,56,0.00,,,0.00,Wunderground v.1.12,2013-02-10 09:00:00,
2013-02-10 04:06:00,11.2,-1.1,30.13,WNW,288,2.0,2.0,57,0.00,,,0.00,Wunderground v.1.12,2013-02-10 09:06:00,
2013-02-10 04:13:00,10.9,-1.0,30.13,WNW,288,1.0,1.0,58,0.00,,,0.00,Wunderground v.1.12,2013-02-10 09:13:00,
2013-02-10 04:18:00,11.2,-0.7,30.14,WNW,288,0.0,2.0,58,0.00,,,0.00,Wunderground v.1.12,2013-02-10 09:18:00,
2013-02-10 04:23:00,11.6,-0.7,30.14,WNW,288,1.0,3.0,57,0.00,,,0.00,Wunderground v.1.12,2013-02-10 09:23:00,
2013-02-10 04:28:00,11.6,-0.7,30.14,WNW,288,2.0,2.0,57,0.00,,,0.00,Wunderground v.1.12,2013-02-10 09:28:00,
2013-02-10 04:33:00,11.6,-0.7,30.14,WNW,288,1.0,2.0,57,0.00,,,0.00,Wunderground v.1.12,2013-02-10 09:33:00,
2013-02-10 04:39:00,11.2,-1.1,30.14,WNW,288,0.0,5.0,57,0.00,,,0.00,Wunderground v.1.12,2013-02-10 09:39:00,
2013-02-10 04:45:00,11.2,-1.5,30.14,WNW,288,1.0,2.0,56,0.00,,,0.00,Wunderground v.1.12,2013-02-10 09:45:00,
2013-02-10 04:51:00,11.1,-1.6,30.15,WNW,288,1.0,3.0,56,0.00,,,0.00,Wunderground v.1.12,2013-02-10 09:51:00,
2013-02-10 04:58:00,10.4,-1.8,30.15,WNW,288,2.0,4.0,57,0.00,,,0.00,Wunderground v.1.12,2013-02-10 09:58:00,
2013-02-10 05:03:00,10.4,-1.8,30.16,WNW,288,2.0,4.0,57,0.00,,,0.00,Wunderground v.1.12,2013-02-10 10:03:00,
2013-02-10 05:11:00,10.4,-2.2,30.16,WNW,288,2.0,2.0,56,0.00,,,0.00,Wunderground v.1.12,2013-02-10 10:11:00,
2013-02-10 05:18:00,10.7,-1.9,30.17,WNW,288,2.0,2.0,56,0.00,,,0.00,Wunderground v.1.12,2013-02-10 10:18:00,
2013-02-10 05:24:00,10.9,-1.7,30.17,WNW,288,1.0,2.0,56,0.00,,,0.00,Wunderground v.1.12,2013-02-10 10:24:00,
2013-02-10 05:30:00,11.1,-1.9,30.17,WNW,288,1.0,2.0,55,0.00,,,0.00,Wunderground v.1.12,2013-02-10 10:30:00,
2013-02-10 05:36:00,10.9,-2.1,30.18,WNW,288,1.0,2.0,55,0.00,,,0.00,Wunderground v.1.12,2013-02-10 10:36:00,
2013-02-10 05:41:00,10.9,-2.1,30.18,WNW,288,1.0,2.0,55,0.00,,,0.00,Wunderground v.1.12,2013-02-10 10:41:00,
2013-02-10 05:46:00,10.2,-3.2,30.18,WNW,288,2.0,3.0,54,0.00,,,0.00,Wunderground v.1.12,2013-02-10 10:46:00,
2013-02-10 05:51:00,9.7,-2.9,30.19,WNW,288,3.0,5.0,56,0.00,,,0.00,Wunderground v.1.12,2013-02-10 10:51:00,
2013-02-10 05:58:00,9.5,-2.7,30.19,WNW,288,3.0,3.0,57,0.00,,,0.00,Wunderground v.1.12,2013-02-10 10:58:00,
2013-02-10 06:03:00,9.7,-2.9,30.19,WNW,288,3.0,3.0,56,0.00,,,0.00,Wunderground v.1.12,2013-02-10 11:03:00,
2013-02-10 06:08:00,9.7,-2.9,30.19,WNW,290,3.0,6.0,56,0.00,,,0.00,Wunderground v.1.12,2013-02-10 11:08:00,
2013-02-10 06:13:00,9.9,-3.1,30.19,WNW,290,3.0,6.0,55,0.00,,,0.00,Wunderground v.1.12,2013-02-10 11:13:00,
2013-02-10 06:19:00,10.2,-2.8,30.20,WNW,290,3.0,4.0,55,0.00,,,0.00,Wunderground v.1.12,2013-02-10 11:19:00,
2013-02-10 06:25:00,9.7,-3.3,30.20,WNW,290,3.0,3.0,55,0.00,,,0.00,Wunderground v.1.12,2013-02-10 11:25:00,
2013-02-10 06:30:00,9.7,-2.9,30.20,WNW,290,3.0,3.0,56,0.00,,,0.00,Wunderground v.1.12,2013-02-10 11:30:00,
2013-02-10 06:35:00,10.0,-2.6,30.21,WNW,290,2.0,2.0,56,0.00,,,0.00,Wunderground v.1.12,2013-02-10 11:35:00,
2013-02-10 06:41:00,10.0,-2.2,30.21,WNW,290,0.0,0.0,57,0.00,,,0.00,Wunderground v.1.12,2013-02-10 11:41:00,
2013-02-10 06:46:00,9.9,-2.3,30.21,WNW,290,0.0,0.0,57,0.00,,,0.00,Wunderground v.1.12,2013-02-10 11:46:00,
2013-02-10 06:53:00,9.9,-2.7,30.20,WNW,293,1.0,7.0,56,0.00,,,0.00,Wunderground v.1.12,2013-02-10 11:53:00,
2013-02-10 06:58:00,9.0,-3.2,30.20,WNW,290,2.0,2.0,57,0.00,,,0.00,Wunderground v.1.12,2013-02-10 11:58:00,
2013-02-10 07:04:00,9.7,-2.9,30.22,WNW,290,2.0,2.0,56,0.00,,,0.00,Wunderground v.1.12,2013-02-10 12:04:00,
2013-02-10 07:10:00,9.7,-2.9,30.22,WNW,290,2.0,2.0,56,0.00,,,0.00,Wunderground v.1.12,2013-02-10 12:10:00,
2013-02-10 07:16:00,9.9,-3.1,30.22,WNW,290,1.0,2.0,55,0.00,,,0.00,Wunderground v.1.12,2013-02-10 12:16:00,
2013-02-10 07:23:00,9.9,-3.1,30.23,WNW,293,1.0,4.0,55,0.00,,,0.00,Wunderground v.1.12,2013-02-10 12:23:00,
2013-02-10 07:28:00,9.2,-3.3,30.23,WNW,290,1.0,2.0,56,0.00,,,0.00,Wunderground v.1.12,2013-02-10 12:28:00,
2013-02-10 07:33:00,9.9,-2.7,30.24,WNW,290,1.0,2.0,56,0.00,,,0.00,Wunderground v.1.12,2013-02-10 12:33:00,
2013-02-10 07:38:00,10.0,-2.6,30.24,WNW,290,1.0,2.0,56,0.00,,,0.00,Wunderground v.1.12,2013-02-10 12:38:00,
2013-02-10 07:44:00,10.4,-2.6,30.24,WNW,290,1.0,1.0,55,0.00,,,0.00,Wunderground v.1.12,2013-02-10 12:44:00,
2013-02-10 07:50:00,10.4,-2.2,30.24,WNW,290,1.0,1.0,56,0.00,,,0.00,Wunderground v.1.12,2013-02-10 12:50:00,
2013-02-10 07:56:00,10.9,-2.1,30.24,WNW,290,1.0,3.0,55,0.00,,,0.00,Wunderground v.1.12,2013-02-10 12:56:00,
2013-02-10 08:01:00,10.7,-2.7,30.24,WNW,290,2.0,2.0,54,0.00,,,0.00,Wunderground v.1.12,2013-02-10 13:01:00,
2013-02-10 08:06:00,11.4,-2.4,30.25,WNW,290,2.0,5.0,53,0.00,,,0.00,Wunderground v.1.12,2013-02-10 13:06:00,
2013-02-10 08:13:00,12.3,-2.4,30.25,WNW,290,4.0,5.0,51,0.00,,,0.00,Wunderground v.1.12,2013-02-10 13:13:00,
2013-02-10 08:18:00,12.8,-2.4,30.25,West,261,4.0,4.0,50,0.00,,,0.00,Wunderground v.1.12,2013-02-10 13:18:00,
2013-02-10 08:23:00,12.8,-2.4,30.25,WNW,293,3.0,10.0,50,0.00,,,0.00,Wunderground v.1.12,2013-02-10 13:23:00,
2013-02-10 08:28:00,13.8,-1.9,30.25,West,268,3.0,3.0,49,0.00,,,0.00,Wunderground v.1.12,2013-02-10 13:28:00,
2013-02-10 08:33:00,14.6,-2.0,30.26,West,259,2.0,6.0,47,0.00,,,0.00,Wunderground v.1.12,2013-02-10 13:33:00,
2013-02-10 08:38:00,15.1,-2.0,30.26,West,260,3.0,3.0,46,0.00,,,0.00,Wunderground v.1.12,2013-02-10 13:38:00,
2013-02-10 08:44:00,15.4,-1.7,30.26,West,279,3.0,3.0,46,0.00,,,0.00,Wunderground v.1.12,2013-02-10 13:44:00,
2013-02-10 08:49:00,15.6,-1.1,30.26,West,279,2.0,2.0,47,0.00,,,0.00,Wunderground v.1.12,2013-02-10 13:49:00,
2013-02-10 08:55:00,15.7,-1.4,30.26,West,279,1.0,1.0,46,0.00,,,0.00,Wunderground v.1.12,2013-02-10 13:55:00,
2013-02-10 09:00:00,15.9,-1.3,30.26,West,279,1.0,3.0,46,0.00,,,0.00,Wunderground v.1.12,2013-02-10 14:00:00,
2013-02-10 09:06:00,16.5,-1.7,30.26,West,281,2.0,4.0,44,0.00,,,0.00,Wunderground v.1.12,2013-02-10 14:06:00,
2013-02-10 09:13:00,17.0,-0.7,30.26,West,281,2.0,3.0,45,0.00,,,0.00,Wunderground v.1.12,2013-02-10 14:13:00,
2013-02-10 09:18:00,17.5,-1.2,30.27,West,280,2.0,7.0,43,0.00,,,0.00,Wunderground v.1.12,2013-02-10 14:18:00,
2013-02-10 09:23:00,17.7,-1.0,30.26,West,270,2.0,8.0,43,0.00,,,0.00,Wunderground v.1.12,2013-02-10 14:23:00,
2013-02-10 09:28:00,18.4,-1.4,30.27,WNW,283,4.0,4.0,41,0.00,,,0.00,Wunderground v.1.12,2013-02-10 14:28:00,
2013-02-10 09:34:00,18.9,-1.0,30.27,WNW,283,3.0,6.0,41,0.00,,,0.00,Wunderground v.1.12,2013-02-10 14:34:00,
2013-02-10 09:39:00,19.2,-0.7,30.27,WNW,283,3.0,4.0,41,0.00,,,0.00,Wunderground v.1.12,2013-02-10 14:39:00,
2013-02-10 09:45:00,19.7,-0.2,30.27,WNW,285,3.0,3.0,41,0.00,,,0.00,Wunderground v.1.12,2013-02-10 14:45:00,
2013-02-10 09:51:00,20.3,-0.8,30.27,West,281,3.0,6.0,39,0.00,,,0.00,Wunderground v.1.12,2013-02-10 14:51:00,
2013-02-10 09:58:00,21.3,0.1,30.27,WNW,283,4.0,6.0,39,0.00,,,0.00,Wunderground v.1.12,2013-02-10 14:58:00,
2013-02-10 10:03:00,21.8,-0.5,30.28,WSW,258,5.0,6.0,37,0.00,,,0.00,Wunderground v.1.12,2013-02-10 15:03:00,
2013-02-10 10:09:00,22.2,-0.2,30.28,West,265,5.0,5.0,37,0.00,,,0.00,Wunderground v.1.12,2013-02-10 15:09:00,
2013-02-10 10:14:00,22.9,0.5,30.28,WNW,296,5.0,6.0,37,0.00,,,0.00,Wunderground v.1.12,2013-02-10 15:14:00,
2013-02-10 10:20:00,23.5,-0.8,30.27,West,272,5.0,6.0,34,0.00,,,0.00,Wunderground v.1.12,2013-02-10 15:20:00,
2013-02-10 10:25:00,24.1,0.3,30.27,WNW,290,5.0,9.0,35,0.00,,,0.00,Wunderground v.1.12,2013-02-10 15:25:00,
2013-02-10 10:30:00,24.4,-0.6,30.27,WNW,282,6.0,7.0,33,0.00,,,0.00,Wunderground v.1.12,2013-02-10 15:30:00,
2013-02-10 10:36:00,24.7,1.5,30.27,WNW,284,4.0,5.0,36,0.00,,,0.00,Wunderground v.1.12,2013-02-10 15:36:00,
2013-02-10 10:43:00,25.4,-1.1,30.27,West,281,5.0,6.0,31,0.00,,,0.00,Wunderground v.1.12,2013-02-10 15:43:00,
2013-02-10 10:48:00,25.7,1.2,30.27,West,281,5.0,8.0,34,0.00,,,0.00,Wunderground v.1.12,2013-02-10 15:48:00,
2013-02-10 10:53:00,26.3,1.7,30.27,WNW,287,5.0,9.0,34,0.00,,,0.00,Wunderground v.1.12,2013-02-10 15:53:00,
2013-02-10 10:59:00,26.9,-1.9,30.27,West,281,6.0,9.0,28,0.00,,,0.00,Wunderground v.1.12,2013-02-10 15:59:00,
2013-02-10 11:05:00,27.3,3.2,30.27,WNW,283,6.0,6.0,35,0.00,,,0.00,Wunderground v.1.12,2013-02-10 16:05:00,
2013-02-10 11:10:00,27.8,4.3,30.27,WNW,284,2.0,5.0,36,0.00,,,0.00,Wunderground v.1.12,2013-02-10 16:10:00,
2013-02-10 11:16:00,28.2,0.7,30.27,WNW,282,2.0,7.0,30,0.00,,,0.00,Wunderground v.1.12,2013-02-10 16:16:00,
2013-02-10 11:21:00,28.7,1.8,30.27,West,279,4.0,6.0,31,0.00,,,0.00,Wunderground v.1.12,2013-02-10 16:21:00,
2013-02-10 11:26:00,29.0,2.1,30.27,West,279,4.0,5.0,31,0.00,,,0.00,Wunderground v.1.12,2013-02-10 16:26:00,
2013-02-10 11:33:00,29.5,2.5,30.27,WNW,284,3.0,4.0,31,0.00,,,0.00,Wunderground v.1.12,2013-02-10 16:33:00,
2013-02-10 11:38:00,29.7,2.0,30.27,WNW,284,3.0,5.0,30,0.00,,,0.00,Wunderground v.1.12,2013-02-10 16:38:00,
2013-02-10 11:44:00,30.1,2.3,30.27,WNW,284,3.0,5.0,30,0.00,,,0.00,Wunderground v.1.12,2013-02-10 16:44:00,
2013-02-10 11:49:00,30.4,1.9,30.26,WNW,284,3.0,3.0,29,0.00,,,0.00,Wunderground v.1.12,2013-02-10 16:49:00,
2013-02-10 11:56:00,30.3,2.5,30.26,WNW,293,3.0,10.0,30,0.00,,,0.00,Wunderground v.1.12,2013-02-10 16:56:00,
2013-02-10 12:01:00,31.0,3.8,30.26,WNW,288,4.0,11.0,31,0.00,,,0.01,Wunderground v.1.12,2013-02-10 17:01:00,
2013-02-10 12:06:00,31.0,1.6,30.26,West,270,5.0,6.0,28,0.00,,,0.01,Wunderground v.1.12,2013-02-10 17:06:00,
2013-02-10 12:13:00,31.8,4.5,30.26,West,269,5.0,6.0,31,0.04,,,0.02,Wunderground v.1.12,2013-02-10 17:13:00,
2013-02-10 12:18:00,32.1,2.6,30.26,West,263,4.0,6.0,28,0.04,,,0.02,Wunderground v.1.12,2013-02-10 17:18:00,
2013-02-10 12:23:00,32.1,2.6,30.26,WNW,293,5.0,14.0,28,0.02,,,0.02,Wunderground v.1.12,2013-02-10 17:23:00,
2013-02-10 12:28:00,31.9,2.4,30.26,West,259,7.0,12.0,28,0.04,,,0.03,Wunderground v.1.12,2013-02-10 17:28:00,
2013-02-10 12:33:00,32.1,1.8,30.26,NW,311,7.0,12.0,27,0.04,,,0.03,Wunderground v.1.12,2013-02-10 17:33:00,
2013-02-10 12:39:00,32.7,3.1,30.26,WNW,287,6.0,7.0,28,0.04,,,0.03,Wunderground v.1.12,2013-02-10 17:39:00,
2013-02-10 12:45:00,33.1,4.2,30.26,West,265,5.0,5.0,29,0.00,,,0.04,Wunderground v.1.12,2013-02-10 17:45:00,
2013-02-10 12:50:00,33.2,3.6,30.26,West,277,5.0,5.0,28,0.00,,,0.04,Wunderground v.1.12,2013-02-10 17:50:00,
2013-02-10 12:55:00,33.1,1.9,30.26,WNW,303,5.0,5.0,26,0.00,,,0.04,Wunderground v.1.12,2013-02-10 17:55:00,
2013-02-10 13:01:00,32.9,0.9,30.26,West,265,6.0,9.0,25,0.00,,,0.04,Wunderground v.1.12,2013-02-10 18:01:00,
2013-02-10 13:08:00,33.4,3.7,30.25,WNW,296,6.0,7.0,28,0.00,,,0.05,Wunderground v.1.12,2013-02-10 18:08:00,
2013-02-10 13:14:00,34.0,3.5,30.25,WNW,288,4.0,6.0,27,0.00,,,0.05,Wunderground v.1.12,2013-02-10 18:14:00,
2013-02-10 13:19:00,34.1,2.7,30.24,WNW,296,5.0,7.0,26,0.04,,,0.06,Wunderground v.1.12,2013-02-10 18:19:00,
2013-02-10 13:25:00,34.3,2.1,30.24,WSW,257,6.0,6.0,25,0.04,,,0.06,Wunderground v.1.12,2013-02-10 18:25:00,
2013-02-10 13:30:00,34.9,4.2,30.24,WNW,287,4.0,9.0,27,0.04,,,0.06,Wunderground v.1.12,2013-02-10 18:30:00,
2013-02-10 13:36:00,35.3,4.6,30.23,West,268,3.0,3.0,27,0.00,,,0.06,Wunderground v.1.12,2013-02-10 18:36:00,
2013-02-10 13:43:00,35.9,4.3,30.23,West,268,2.0,7.0,26,0.00,,,0.07,Wunderground v.1.12,2013-02-10 18:43:00,
2013-02-10 13:48:00,36.0,4.4,30.22,West,269,3.0,3.0,26,0.00,,,0.07,Wunderground v.1.12,2013-02-10 18:48:00,
2013-02-10 13:54:00,36.0,3.5,30.22,West,275,2.0,2.0,25,0.00,,,0.07,Wunderground v.1.12,2013-02-10 18:54:00,
2013-02-10 14:00:00,36.6,4.0,30.22,West,275,2.0,5.0,25,0.00,,,0.08,Wunderground v.1.12,2013-02-10 19:00:00,
2013-02-10 14:06:00,36.8,1.4,30.22,West,278,3.0,6.0,22,0.00,,,0.08,Wunderground v.1.12,2013-02-10 19:06:00,
2013-02-10 14:11:00,36.6,2.2,30.22,West,279,4.0,7.0,23,0.00,,,0.08,Wunderground v.1.12,2013-02-10 19:11:00,
2013-02-10 14:16:00,37.2,5.4,30.22,West,279,2.0,3.0,26,0.00,,,0.08,Wunderground v.1.12,2013-02-10 19:16:00,
2013-02-10 14:23:00,37.3,3.7,30.22,West,270,2.0,10.0,24,0.03,,,0.09,Wunderground v.1.12,2013-02-10 19:23:00,
2013-02-10 14:28:00,37.5,3.9,30.22,West,279,2.0,4.0,24,0.00,,,0.09,Wunderground v.1.12,2013-02-10 19:28:00,
2013-02-10 14:34:00,36.9,1.5,30.22,West,279,4.0,5.0,22,0.00,,,0.09,Wunderground v.1.12,2013-02-10 19:34:00,
2013-02-10 14:39:00,37.2,4.5,30.22,West,279,4.0,4.0,25,0.00,,,0.09,Wunderground v.1.12,2013-02-10 19:39:00,
2013-02-10 14:44:00,37.0,3.5,30.22,WNW,290,3.0,5.0,24,0.00,,,0.10,Wunderground v.1.12,2013-02-10 19:44:00,
2013-02-10 14:50:00,37.0,4.4,30.22,West,266,4.0,7.0,25,0.00,,,0.10,Wunderground v.1.12,2013-02-10 19:50:00,
2013-02-10 14:55:00,36.9,2.5,30.22,West,265,5.0,5.0,23,0.00,,,0.10,Wunderground v.1.12,2013-02-10 19:55:00,
2013-02-10 15:01:00,37.3,2.8,30.22,West,269,4.0,6.0,23,0.00,,,0.10,Wunderground v.1.12,2013-02-10 20:01:00,
2013-02-10 15:08:00,37.2,2.7,30.22,West,271,4.0,6.0,23,0.00,,,0.10,Wunderground v.1.12,2013-02-10 20:08:00,
2013-02-10 15:13:00,37.6,3.1,30.22,West,271,3.0,5.0,23,0.00,,,0.10,Wunderground v.1.12,2013-02-10 20:13:00,
2013-02-10 15:18:00,37.8,3.2,30.22,West,271,2.0,5.0,23,0.00,,,0.11,Wunderground v.1.12,2013-02-10 20:18:00,
2013-02-10 15:23:00,38.2,4.5,30.22,West,271,2.0,2.0,24,0.00,,,0.11,Wunderground v.1.12,2013-02-10 20:23:00,
2013-02-10 15:29:00,38.0,3.4,30.22,West,271,1.0,5.0,23,0.00,,,0.11,Wunderground v.1.12,2013-02-10 20:29:00,
2013-02-10 15:34:00,37.5,3.0,30.22,West,269,4.0,7.0,23,0.00,,,0.11,Wunderground v.1.12,2013-02-10 20:34:00,
2013-02-10 15:41:00,37.3,5.5,30.22,West,269,4.0,4.0,26,0.00,,,0.11,Wunderground v.1.12,2013-02-10 20:41:00,
2013-02-10 15:47:00,37.3,1.9,30.24,West,272,3.0,5.0,22,0.00,,,0.11,Wunderground v.1.12,2013-02-10 20:47:00,
2013-02-10 15:52:00,37.2,1.8,30.24,WSW,250,5.0,8.0,22,0.00,,,0.11,Wunderground v.1.12,2013-02-10 20:52:00,
2013-02-10 15:59:00,37.0,1.6,30.24,West,269,6.0,7.0,22,0.00,,,0.11,Wunderground v.1.12,2013-02-10 20:59:00,
2013-02-10 16:04:00,37.0,1.6,30.24,West,270,5.0,11.0,22,0.01,,,0.10,Wunderground v.1.12,2013-02-10 21:04:00,
2013-02-10 16:07:00,37.0,1.6,30.24,West,270,5.0,11.0,22,0.01,,,0.10,Wunderground v.1.12,2013-02-10 21:07:00,
2013-02-10 16:09:00,37.0,3.5,30.24,WSW,251,4.0,5.0,24,0.00,,,0.11,Wunderground v.1.12,2013-02-10 21:09:00,
2013-02-10 16:14:00,37.0,2.6,30.25,West,260,3.0,5.0,23,0.00,,,0.11,Wunderground v.1.12,2013-02-10 21:14:00,
2013-02-10 16:20:00,36.9,1.5,30.25,West,261,4.0,4.0,22,0.00,,,0.11,Wunderground v.1.12,2013-02-10 21:20:00,
2013-02-10 16:25:00,36.9,2.5,30.25,West,261,3.0,3.0,23,0.00,,,0.11,Wunderground v.1.12,2013-02-10 21:25:00,
2013-02-10 16:31:00,36.8,1.4,30.25,West,261,3.0,3.0,22,0.00,,,0.11,Wunderground v.1.12,2013-02-10 21:31:00,
2013-02-10 16:36:00,36.8,1.4,30.25,West,270,3.0,9.0,22,0.00,,,0.10,Wunderground v.1.12,2013-02-10 21:36:00,
2013-02-10 16:37:00,36.8,2.4,30.25,West,261,2.0,2.0,23,0.00,,,0.11,Wunderground v.1.12,2013-02-10 21:37:00,
2013-02-10 16:42:00,36.8,2.4,30.25,West,261,1.0,1.0,23,0.00,,,0.11,Wunderground v.1.12,2013-02-10 21:42:00,
2013-02-10 16:47:00,36.2,2.8,30.25,West,261,1.0,5.0,24,0.00,,,0.11,Wunderground v.1.12,2013-02-10 21:47:00,
2013-02-10 16:52:00,35.8,0.6,30.25,West,261,2.0,2.0,22,0.00,,,0.11,Wunderground v.1.12,2013-02-10 21:52:00,
2013-02-10 16:59:00,35.2,1.0,30.25,West,261,2.0,5.0,23,0.00,,,0.11,Wunderground v.1.12,2013-02-10 21:59:00,
2013-02-10 17:04:00,34.6,0.5,30.25,West,261,2.0,2.0,23,0.00,,,0.11,Wunderground v.1.12,2013-02-10 22:04:00,
2013-02-10 17:08:00,35.2,1.9,30.25,West,270,2.0,6.0,24,0.00,,,0.11,Wunderground v.1.12,2013-02-10 22:08:00,
2013-02-10 17:09:00,34.1,1.0,30.25,West,261,1.0,2.0,24,0.00,,,0.12,Wunderground v.1.12,2013-02-10 22:09:00,
2013-02-10 17:14:00,33.7,0.7,30.25,West,261,0.0,1.0,24,0.00,,,0.12,Wunderground v.1.12,2013-02-10 22:14:00,
2013-02-10 17:19:00,33.4,0.4,30.25,West,261,0.0,0.0,24,0.00,,,0.12,Wunderground v.1.12,2013-02-10 22:19:00,
2013-02-10 17:24:00,32.9,1.7,30.25,West,261,0.0,0.0,26,0.00,,,0.12,Wunderground v.1.12,2013-02-10 22:24:00,
2013-02-10 17:30:00,32.1,2.6,30.25,West,261,0.0,0.0,28,0.00,,,0.12,Wunderground v.1.12,2013-02-10 22:30:00,
2013-02-10 17:35:00,31.3,1.9,30.25,West,261,0.0,0.0,28,0.00,,,0.12,Wunderground v.1.12,2013-02-10 22:35:00,
2013-02-10 17:36:00,32.1,2.6,30.25,West,270,0.0,4.0,28,0.01,,,0.11,Wunderground v.1.12,2013-02-10 22:36:00,
2013-02-10 17:40:00,30.7,0.6,30.25,West,261,0.0,0.0,27,0.00,,,0.12,Wunderground v.1.12,2013-02-10 22:40:00,
2013-02-10 17:46:00,30.1,0.9,30.26,West,261,0.0,0.0,28,0.00,,,0.12,Wunderground v.1.12,2013-02-10 22:46:00,
2013-02-10 17:51:00,29.5,4.5,30.26,West,261,0.0,0.0,34,0.00,,,0.12,Wunderground v.1.12,2013-02-10 22:51:00,
2013-02-10 17:57:00,28.8,3.3,30.26,West,261,0.0,0.0,33,0.00,,,0.12,Wunderground v.1.12,2013-02-10 22:57:00,
2013-02-10 18:02:00,28.4,2.2,30.27,West,261,0.0,0.0,32,0.00,,,0.12,Wunderground v.1.12,2013-02-10 23:02:00,
2013-02-10 18:06:00,28.5,2.3,30.27,N/A,-737280,0.0,0.0,32,0.01,,,0.11,Wunderground v.1.12,2013-02-10 23:06:00,
2013-02-10 18:08:00,27.8,1.7,30.27,West,261,0.0,0.0,32,0.00,,,0.12,Wunderground v.1.12,2013-02-10 23:08:00,
2013-02-10 18:14:00,27.3,3.8,30.27,West,261,0.0,0.0,36,0.00,,,0.12,Wunderground v.1.12,2013-02-10 23:14:00,
2013-02-10 18:19:00,27.2,3.7,30.27,West,261,0.0,0.0,36,0.00,,,0.12,Wunderground v.1.12,2013-02-10 23:19:00,
2013-02-10 18:24:00,27.0,2.3,30.27,West,261,0.0,0.0,34,0.00,,,0.12,Wunderground v.1.12,2013-02-10 23:24:00,
2013-02-10 18:29:00,27.0,2.3,30.27,West,261,0.0,0.0,34,0.00,,,0.12,Wunderground v.1.12,2013-02-10 23:29:00,
2013-02-10 18:34:00,26.9,2.8,30.27,West,261,0.0,0.0,35,0.00,,,0.12,Wunderground v.1.12,2013-02-10 23:34:00,
2013-02-10 18:36:00,27.0,2.3,30.26,West,270,0.0,1.0,34,0.00,,,0.11,Wunderground v.1.12,2013-02-10 23:36:00,
2013-02-10 18:40:00,26.6,2.6,30.27,West,261,0.0,0.0,35,0.00,,,0.12,Wunderground v.1.12,2013-02-10 23:40:00,
2013-02-10 18:46:00,26.4,1.8,30.27,West,261,0.0,0.0,34,0.00,,,0.12,Wunderground v.1.12,2013-02-10 23:46:00,
2013-02-10 18:52:00,26.1,2.7,30.27,West,261,0.0,0.0,36,0.00,,,0.12,Wunderground v.1.12,2013-02-10 23:52:00,
2013-02-10 18:59:00,25.8,1.9,30.27,West,261,0.0,0.0,35,0.00,,,0.12,Wunderground v.1.12,2013-02-10 23:59:00,
2013-02-10 19:07:00,25.8,1.2,30.26,West,261,0.0,0.0,34,0.00,,,0.12,Wunderground v.1.12,2013-02-11 00:07:00,
2013-02-10 19:08:00,25.8,1.9,30.26,West,270,0.0,1.0,35,0.00,,,0.11,Wunderground v.1.12,2013-02-11 00:08:00,
2013-02-10 19:13:00,25.6,5.6,30.26,West,261,0.0,0.0,42,0.00,,,0.12,Wunderground v.1.12,2013-02-11 00:13:00,
2013-02-10 19:19:00,24.7,6.3,30.27,West,261,0.0,0.0,45,0.00,,,0.12,Wunderground v.1.12,2013-02-11 00:19:00,
2013-02-10 19:24:00,24.2,6.8,30.27,West,261,0.0,0.0,47,0.00,,,0.12,Wunderground v.1.12,2013-02-11 00:24:00,
2013-02-10 19:29:00,23.8,5.0,30.27,West,261,0.0,0.0,44,0.00,,,0.12,Wunderground v.1.12,2013-02-11 00:29:00,
2013-02-10 19:34:00,23.5,4.2,30.27,West,261,0.0,0.0,43,0.00,,,0.12,Wunderground v.1.12,2013-02-11 00:34:00,
2013-02-10 19:36:00,23.8,5.0,30.27,N/A,-737280,0.0,0.0,44,0.00,,,0.11,Wunderground v.1.12,2013-02-11 00:36:00,
2013-02-10 19:40:00,23.5,3.7,30.27,West,261,0.0,0.0,42,0.00,,,0.12,Wunderground v.1.12,2013-02-11 00:40:00,
2013-02-10 19:46:00,23.5,3.2,30.27,West,261,0.0,1.0,41,0.00,,,0.12,Wunderground v.1.12,2013-02-11 00:46:00,
2013-02-10 19:51:00,24.5,2.5,30.27,West,261,0.0,1.0,38,0.00,,,0.12,Wunderground v.1.12,2013-02-11 00:51:00,
2013-02-10 19:57:00,25.1,1.8,30.27,West,261,0.0,0.0,36,0.00,,,0.12,Wunderground v.1.12,2013-02-11 00:57:00,
2013-02-10 20:02:00,25.6,1.1,30.26,West,261,0.0,0.0,34,0.00,,,0.12,Wunderground v.1.12,2013-02-11 01:02:00,
2013-02-10 20:06:00,25.3,1.4,30.26,West,270,0.0,3.0,35,0.00,,,0.11,Wunderground v.1.12,2013-02-11 01:06:00,
2013-02-10 20:09:00,25.4,3.3,30.26,West,261,0.0,0.0,38,0.00,,,0.12,Wunderground v.1.12,2013-02-11 01:09:00,
2013-02-10 20:14:00,24.8,3.9,30.26,West,261,0.0,0.0,40,0.00,,,0.12,Wunderground v.1.12,2013-02-11 01:14:00,
2013-02-10 20:19:00,24.1,2.7,30.26,West,261,0.0,0.0,39,0.00,,,0.12,Wunderground v.1.12,2013-02-11 01:19:00,
2013-02-10 20:25:00,23.8,4.0,30.26,West,261,0.0,0.0,42,0.00,,,0.12,Wunderground v.1.12,2013-02-11 01:25:00,
2013-02-10 20:30:00,23.9,1.9,30.26,West,261,0.0,0.0,38,0.00,,,0.12,Wunderground v.1.12,2013-02-11 01:30:00,
2013-02-10 20:36:00,24.1,2.1,30.26,West,261,0.0,0.0,38,0.00,,,0.12,Wunderground v.1.12,2013-02-11 01:36:00,
2013-02-10 20:37:00,23.9,1.9,30.26,West,270,0.0,1.0,38,0.00,,,0.11,Wunderground v.1.12,2013-02-11 01:37:00,
2013-02-10 20:41:00,24.2,1.6,30.26,West,261,0.0,0.0,37,0.00,,,0.12,Wunderground v.1.12,2013-02-11 01:41:00,
2013-02-10 20:46:00,23.9,3.6,30.25,West,261,0.0,0.0,41,0.00,,,0.12,Wunderground v.1.12,2013-02-11 01:46:00,
2013-02-10 20:52:00,23.5,2.7,30.25,West,261,0.0,0.0,40,0.00,,,0.12,Wunderground v.1.12,2013-02-11 01:52:00,
2013-02-10 20:57:00,23.2,1.3,30.25,West,261,0.0,0.0,38,0.00,,,0.12,Wunderground v.1.12,2013-02-11 01:57:00,
2013-02-10 21:02:00,23.0,1.7,30.25,West,261,0.0,0.0,39,0.00,,,0.12,Wunderground v.1.12,2013-02-11 02:02:00,
2013-02-10 21:06:00,23.2,1.9,30.25,West,270,0.0,1.0,39,0.00,,,0.11,Wunderground v.1.12,2013-02-11 02:06:00,
2013-02-10 21:09:00,21.3,3.2,30.25,West,261,0.0,1.0,45,0.00,,,0.12,Wunderground v.1.12,2013-02-11 02:09:00,
2013-02-10 21:14:00,20.2,3.2,30.25,West,261,0.0,1.0,47,0.00,,,0.12,Wunderground v.1.12,2013-02-11 02:14:00,
2013-02-10 21:19:00,20.0,3.0,30.25,West,261,0.0,0.0,47,0.00,,,0.12,Wunderground v.1.12,2013-02-11 02:19:00,
2013-02-10 21:24:00,20.0,3.9,30.25,West,261,0.0,0.0,49,0.00,,,0.12,Wunderground v.1.12,2013-02-11 02:24:00,
2013-02-10 21:30:00,20.3,3.7,30.25,West,261,0.0,0.0,48,0.00,,,0.12,Wunderground v.1.12,2013-02-11 02:30:00,
2013-02-10 21:35:00,20.8,2.3,30.25,West,261,0.0,0.0,44,0.00,,,0.12,Wunderground v.1.12,2013-02-11 02:35:00,
2013-02-10 21:37:00,20.3,3.7,30.25,West,270,0.0,2.0,48,0.00,,,0.11,Wunderground v.1.12,2013-02-11 02:37:00,
2013-02-10 21:41:00,22.1,1.4,30.25,West,261,0.0,0.0,40,0.00,,,0.12,Wunderground v.1.12,2013-02-11 02:41:00,
2013-02-10 21:47:00,22.2,2.0,30.25,West,261,0.0,0.0,41,0.00,,,0.12,Wunderground v.1.12,2013-02-11 02:47:00,
2013-02-10 21:52:00,22.2,1.0,30.25,West,261,0.0,0.0,39,0.00,,,0.12,Wunderground v.1.12,2013-02-11 02:52:00,
2013-02-10 21:58:00,21.9,1.8,30.25,West,261,0.0,0.0,41,0.00,,,0.12,Wunderground v.1.12,2013-02-11 02:58:00,
2013-02-10 22:04:00,21.4,2.8,30.25,West,261,0.0,0.0,44,0.00,,,0.12,Wunderground v.1.12,2013-02-11 03:04:00,
2013-02-10 22:06:00,21.9,3.3,30.25,N/A,-737280,0.0,0.0,44,0.00,,,0.11,Wunderground v.1.12,2013-02-11 03:06:00,
2013-02-10 22:09:00,21.1,2.6,30.25,West,261,0.0,0.0,44,0.00,,,0.12,Wunderground v.1.12,2013-02-11 03:09:00,
2013-02-10 22:15:00,20.8,2.3,30.25,West,261,0.0,0.0,44,0.00,,,0.12,Wunderground v.1.12,2013-02-11 03:15:00,
2013-02-10 22:20:00,20.3,2.3,30.25,West,261,0.0,0.0,45,0.00,,,0.12,Wunderground v.1.12,2013-02-11 03:20:00,
2013-02-10 22:25:00,19.9,2.4,30.25,West,261,0.0,0.0,46,0.00,,,0.12,Wunderground v.1.12,2013-02-11 03:25:00,
2013-02-10 22:31:00,19.1,3.5,30.25,West,261,0.0,0.0,50,0.00,,,0.12,Wunderground v.1.12,2013-02-11 03:31:00,
2013-02-10 22:36:00,19.2,3.1,30.25,West,270,0.0,1.0,49,0.00,,,0.11,Wunderground v.1.12,2013-02-11 03:36:00,
2013-02-10 22:37:00,18.8,3.2,30.25,West,261,0.0,0.0,50,0.00,,,0.12,Wunderground v.1.12,2013-02-11 03:37:00,
2013-02-10 22:42:00,19.2,2.2,30.25,West,261,0.0,0.0,47,0.00,,,0.12,Wunderground v.1.12,2013-02-11 03:42:00,
2013-02-10 22:47:00,19.2,2.7,30.25,West,261,0.0,0.0,48,0.00,,,0.12,Wunderground v.1.12,2013-02-11 03:47:00,
2013-02-10 22:52:00,19.1,3.0,30.25,West,261,0.0,0.0,49,0.00,,,0.12,Wunderground v.1.12,2013-02-11 03:52:00,
2013-02-10 22:58:00,18.9,2.0,30.25,West,261,0.0,0.0,47,0.00,,,0.12,Wunderground v.1.12,2013-02-11 03:58:00,
2013-02-10 23:04:00,18.8,1.9,30.25,West,261,0.0,0.0,47,0.00,,,0.12,Wunderground v.1.12,2013-02-11 04:04:00,
2013-02-10 23:06:00,18.9,2.0,30.25,West,270,0.0,1.0,47,0.00,,,0.11,Wunderground v.1.12,2013-02-11 04:06:00,
2013-02-10 23:08:00,18.9,2.0,30.25,West,270,0.0,1.0,47,0.00,,,0.11,Wunderground v.1.12,2013-02-11 04:08:00,
2013-02-10 23:10:00,18.6,2.1,30.25,West,261,0.0,0.0,48,0.00,,,0.12,Wunderground v.1.12,2013-02-11 04:10:00,
2013-02-10 23:12:00,18.9,2.0,30.25,West,270,0.0,1.0,47,0.00,,,0.11,Wunderground v.1.12,2013-02-11 04:12:00,
2013-02-10 23:14:00,18.9,2.0,30.25,West,270,0.0,1.0,47,0.00,,,0.11,Wunderground v.1.12,2013-02-11 04:14:00,
2013-02-10 23:16:00,17.3,3.1,30.25,N/A,-737280,0.0,0.0,53,0.00,,,0.11,Wunderground v.1.12,2013-02-11 04:16:00,
2013-02-10 23:18:00,17.3,3.1,30.25,N/A,-737280,0.0,0.0,53,0.00,,,0.11,Wunderground v.1.12,2013-02-11 04:18:00,
2013-02-10 23:20:00,17.3,3.1,30.25,N/A,-737280,0.0,0.0,53,0.00,,,0.11,Wunderground v.1.12,2013-02-11 04:20:00,
2013-02-10 23:22:00,17.3,3.1,30.25,N/A,-737280,0.0,0.0,53,0.00,,,0.11,Wunderground v.1.12,2013-02-11 04:22:00,
2013-02-10 23:24:00,17.3,3.1,30.25,N/A,-737280,0.0,0.0,53,0.00,,,0.11,Wunderground v.1.12,2013-02-11 04:24:00,
2013-02-10 23:26:00,17.3,3.1,30.25,N/A,-737280,0.0,0.0,53,0.00,,,0.11,Wunderground v.1.12,2013-02-11 04:26:00,
2013-02-10 23:28:00,17.3,3.1,30.25,N/A,-737280,0.0,0.0,53,0.00,,,0.11,Wunderground v.1.12,2013-02-11 04:28:00,
2013-02-10 23:30:00,17.3,3.1,30.25,N/A,-737280,0.0,0.0,53,0.00,,,0.11,Wunderground v.1.12,2013-02-11 04:30:00,
2013-02-10 23:32:00,17.3,3.1,30.25,N/A,-737280,0.0,0.0,53,0.00,,,0.11,Wunderground v.1.12,2013-02-11 04:32:00,
2013-02-10 23:34:00,17.3,3.1,30.25,N/A,-737280,0.0,0.0,53,0.00,,,0.11,Wunderground v.1.12,2013-02-11 04:34:00,
2013-02-10 23:36:00,17.3,3.1,30.25,N/A,-737280,0.0,0.0,53,0.00,,,0.11,Wunderground v.1.12,2013-02-11 04:36:00,
2013-02-10 23:38:00,17.3,3.1,30.25,N/A,-737280,0.0,0.0,53,0.00,,,0.11,Wunderground v.1.12,2013-02-11 04:38:00,
2013-02-10 23:40:00,17.3,3.1,30.25,N/A,-737280,0.0,0.0,53,0.00,,,0.11,Wunderground v.1.12,2013-02-11 04:40:00,
2013-02-10 23:42:00,17.3,3.1,30.25,N/A,-737280,0.0,0.0,53,0.00,,,0.11,Wunderground v.1.12,2013-02-11 04:42:00,
2013-02-10 23:44:00,17.3,3.1,30.25,N/A,-737280,0.0,0.0,53,0.00,,,0.11,Wunderground v.1.12,2013-02-11 04:44:00,
2013-02-10 23:46:00,15.2,2.3,30.25,N/A,-737280,0.0,0.0,56,0.00,,,0.11,Wunderground v.1.12,2013-02-11 04:46:00,
2013-02-10 23:48:00,15.2,2.3,30.25,N/A,-737280,0.0,0.0,56,0.00,,,0.11,Wunderground v.1.12,2013-02-11 04:48:00,
2013-02-10 23:50:00,15.2,2.3,30.25,N/A,-737280,0.0,0.0,56,0.00,,,0.11,Wunderground v.1.12,2013-02-11 04:50:00,
2013-02-10 23:52:00,15.2,2.3,30.25,N/A,-737280,0.0,0.0,56,0.00,,,0.11,Wunderground v.1.12,2013-02-11 04:52:00,
2013-02-10 23:54:00,15.2,2.3,30.25,N/A,-737280,0.0,0.0,56,0.00,,,0.11,Wunderground v.1.12,2013-02-11 04:54:00,
2013-02-10 23:56:00,15.2,2.3,30.25,N/A,-737280,0.0,0.0,56,0.00,,,0.11,Wunderground v.1.12,2013-02-11 04:56:00,
2013-02-10 23:58:00,15.2,2.3,30.25,N/A,-737280,0.0,0.0,56,0.00,,,0.11,Wunderground v.1.12,2013-02-11 04:58:00,